STARLINK-34159, 63952

Orbit data source: Space-Track

STARLINK-34159, 63952 is a payload satellite owned by SpaceX/Seattle (US) in LEO that was launched on Tue, 13 May 2025 UTC via an FALCON 9 launch vehicle from the Air Force Eastern Test Range (AFETR). Payload-class satellites include a variety of spacecraft equipped with specific instruments for various scientific and technological missions. These include communications satellites like Starlink; space stations such as the ISS; scientific satellites like the Hubble; Earth observation satellites from companies like Planet Labs, Umbra, and HawkEye 360; GPS; miniature CubeSats for education and research; and military/defense satellites.

Loading next visibility...
Identifier
63952, 2025-099A
Orbit
LEO
Country
Flag of USUS
Related business
Manufacturer
SpaceX/Seattle
Mission
Operational Commercial Communications
Bus & Motor
STARLINK V2MO, Unknown motor
Mass
575 kg wet, ~530 kg dry
Launch date (UTC)
2025-05-13 (11 months ago)
Launch vehicle
FALCON 9
Launch site
Air Force Eastern Test Range (AFETR)
Object type
Payload
Rocket body
Debris
Shape & HBR
Box + 2 Pan, 17.7 m
Radar Cross Section
36.964 m², Large (>1 m²)

Expand to show TLE details & history
Last TLE update: 23 hours ago

TLE from 23 hours ago
0 STARLINK-34159
1 63952U 25099A   26093.54095330  .00028842  00000-0  10532-2 0  9996
2 63952  43.0026  36.1664 0001930  41.0580 319.0417 15.27589806 51124
Epoch: 2026-04-03T12:58Z
TLE epoch observation values (Epoch: 2026-04-03T12:58:58.365Z)
Latitude
0.00002°
Longitude
9.54962°
Altitude
481.796 km
Speed
7.627 km/s
True Right ascension
02h 24m 39s
True Declination
0° 00' 00"
Sunlit
Object was in daylight at epoch
Visualization orbit readout
Latitude
Unknown
Longitude
Unknown
Altitude
Unknown
Speed
Unknown
Apparent Right ascension
Unknown
Apparent Declination
Unknown
Sunlit
N/A
Visualization observer readout
Local Sidereal Time
17:26:59
Azimuth
Unknown
Elevation
Unknown
Doppler factor
Unknown
Orbital elements
Apogee altitude
486.289 km
Perigee altitude
483.64 km
Semi-major axis
6,863.101 km
Eccentricity
0.00019
Inclination
43.0026°
RAAN
36.1664°
Arg. of periapsis
41.058°
True anomaly
319.0272°
Mean anomaly
319.0417°
Eccentric anomaly
319.03445°
Mean motion
3.81735 °/min
Orbital period
94.31 mins
BSTAR
0.0010532
Loading maneuver chart data...
Computing Atmospheric mass density...
Loading historical data...
Loading historical data...
Loading historical data...
Loading historical data...
Loading historical data...
Loading historical data...
Loading historical data...

Documentation

Showing up to 5 results
|